Fri Langesund — ZDKQ8 — position and weather

sailwx.info

Track history (hours):
 
Tides and Currents Weather Stations Pressure Air Temp Water Temp Dewpoint Dewpoint Depression Visibility Wind Speed Wind Dir Waves Ship Positions

Fri Langesund

Last reported at 2014-Oct-29 23:07 UTC. Time now 2014-Nov-01 05:30 UTC.
Position N 36°33' W 008°44'.

Length 90 m; draft 5.9 m.

Type: Cargo ship. MMSI: 236111779.

Date/timePositionNaut miles runAvg speedWind from/ knotsBaromVisibWave heightAir tempDewpointWater temp
2014-Oct-29 23:07N 36°33' W 008°44'6 9.5
2014-Oct-29 22:27N 36°33' W 008°52'8 9.0
2014-Oct-29 21:30N 36°32' W 009°02'10 8.8
2014-Oct-29 20:25N 36°34' W 009°14'10 9.1
2014-Oct-29 19:19N 36°40' W 009°24'7 9.2
2014-Oct-29 18:33N 36°45' W 009°31'30 9.3
2014-Oct-29 15:20N 37°14' W 009°40'17 9.0
2014-Oct-29 13:29N 37°30' W 009°45'9 9.7
2014-Oct-29 12:32N 37°39' W 009°48'10 9.9
2014-Oct-29 11:33N 37°48' W 009°50'1010.0
2014-Oct-29 10:32N 37°58' W 009°53'10 9.9
2014-Oct-29 09:33N 38°08' W 009°56'1010.0
2014-Oct-29 08:30N 38°18' W 009°59'1010.1
2014-Oct-29 07:33N 38°27' W 010°02'  
2014-Oct-26 01:34N 49°42' W 003°45'2211.2
2014-Oct-25 23:33N 49°53' W 003°15'20 9.5
2014-Oct-25 21:27N 50°02' W 002°47'11310.2
2014-Oct-25 10:26N 50°33' E 000°03'9 8.2
2014-Oct-25 09:19N 50°35' E 000°17'6 8.2
2014-Oct-25 08:33N 50°37' E 000°26'9 9.2
2014-Oct-25 07:33N 50°41' E 000°39'1111.1
2014-Oct-25 06:33N 50°47' E 000°54'1211.8
2014-Oct-25 05:33N 50°54' E 001°09'1211.6
2014-Oct-25 04:33N 51°02' E 001°23'1010.2
2014-Oct-25 03:33N 51°08' E 001°35'9 8.7
2014-Oct-25 02:33N 51°14' E 001°46'8 8.2
2014-Oct-25 01:33N 51°21' E 001°54'7 7.3
2014-Oct-25 00:34N 51°24' E 002°04'9 8.9
2014-Oct-24 23:33N 51°21' E 002°17'9 9.2
2014-Oct-24 22:33N 51°23' E 002°32'10 9.7
2014-Oct-24 21:33N 51°22' E 002°47'1210.9
2014-Oct-24 20:28N 51°24' E 003°06'1011.3
2014-Oct-24 19:33N 51°25' E 003°22'1110.9
2014-Oct-24 18:34N 51°27' E 003°40'1110.8
2014-Oct-24 17:33N 51°22' E 003°56'8 7.7
2014-Oct-24 16:33N 51°22' E 004°08'6 6.1
2014-Oct-24 15:33N 51°21' E 004°17'0 0.0
2014-Oct-24 14:32N 51°21' E 004°17'1 0.7
2014-Oct-24 13:33N 51°21' E 004°18'0 0.3
2014-Oct-24 12:11N 51°22' E 004°17'0 0.0
2014-Oct-24 11:29N 51°22' E 004°17'0 0.0
2014-Oct-24 10:29N 51°22' E 004°17'0 0.0
2014-Oct-24 09:32N 51°22' E 004°17'0 0.0
2014-Oct-24 06:05N 51°22' E 004°17'0 0.0
2014-Oct-24 02:32N 51°22' E 004°17'0 0.0
2014-Oct-24 00:26N 51°22' E 004°17'0 0.0
2014-Oct-23 20:32N 51°22' E 004°17'0 0.0
2014-Oct-23 17:23N 51°22' E 004°17'0 0.0
2014-Oct-23 07:23N 51°22' E 004°17'0 0.0
2014-Oct-23 06:08N 51°22' E 004°17'0 0.0
2014-Oct-23 04:29N 51°22' E 004°17'0 0.0
2014-Oct-23 03:32N 51°22' E 004°17'0 0.0
2014-Oct-23 02:08N 51°22' E 004°17'0 0.0
2014-Oct-23 00:17N 51°22' E 004°17'0 0.4
2014-Oct-22 23:34N 51°21' E 004°18'1 0.7
2014-Oct-22 22:34N 51°21' E 004°17'1 0.8
2014-Oct-22 21:33N 51°21' E 004°16'7 7.3
2014-Oct-22 20:34N 51°22' E 004°04'5 5.2
2014-Oct-22 19:33N 51°22' E 003°56'8 8.3
2014-Oct-22 18:33N 51°23' E 003°43'8 7.5
2014-Oct-22 17:33N 51°27' E 003°33'9 9.4
2014-Oct-22 16:33N 51°35' E 003°24'9 9.2
2014-Oct-22 15:34N 51°42' E 003°16'6 6.1
2014-Oct-22 14:33N 51°48' E 003°17'9 8.4
2014-Oct-22 13:31N 51°57' E 003°21'12 5.9
2014-Oct-22 11:33N 52°03' E 003°37'7 6.7
2014-Oct-22 10:34N 52°03' E 003°48'7 6.5
2014-Oct-22 09:34N 52°01' E 003°58'7 6.5
2014-Oct-22 08:33N 51°58' E 004°07'1110.6
2014-Oct-22 07:33N 51°54' E 004°23'3 3.3
2014-Oct-22 06:32N 51°54' E 004°28'0 0.0
2014-Oct-22 05:31N 51°54' E 004°28'1 1.5
2014-Oct-22 04:33N 51°54' E 004°26'1 0.8
2014-Oct-22 03:33N 51°55' E 004°25'0 0.0
2014-Oct-22 02:33N 51°55' E 004°25'0 0.0
2014-Oct-22 01:33N 51°55' E 004°25'0 0.0
2014-Oct-22 00:33N 51°55' E 004°25'0 0.0
2014-Oct-21 23:33N 51°55' E 004°25'0 0.0
2014-Oct-21 22:33N 51°55' E 004°25'0 0.0
2014-Oct-21 21:33N 51°55' E 004°25'0 0.0
2014-Oct-21 20:33N 51°55' E 004°25'0 0.0
2014-Oct-21 19:33N 51°55' E 004°25'0 0.0
2014-Oct-21 18:33N 51°55' E 004°25'0 0.0
2014-Oct-21 17:33N 51°55' E 004°25'0 0.0
2014-Oct-21 16:33N 51°55' E 004°25'0 0.0
2014-Oct-21 15:30N 51°55' E 004°25'0 0.0
2014-Oct-21 14:33N 51°55' E 004°25'0 0.0
2014-Oct-21 13:33N 51°55' E 004°25'0 0.0
2014-Oct-21 12:33N 51°55' E 004°25'0 0.0
2014-Oct-21 11:33N 51°55' E 004°25'0 0.0
2014-Oct-21 10:33N 51°55' E 004°25'0 0.0
2014-Oct-21 09:33N 51°55' E 004°25'0 0.0
2014-Oct-21 08:33N 51°55' E 004°25'0 0.0
2014-Oct-21 07:33N 51°55' E 004°25'163162.8
2014-Oct-21 06:33N 51°55' E 000°01'163162.9
2014-Oct-21 05:33N 51°55' E 004°25'0 0.0
2014-Oct-21 04:33N 51°55' E 004°25'0 0.0
2014-Oct-21 03:33N 51°55' E 004°25'0 0.0
2014-Oct-21 02:33N 51°55' E 004°25'0 0.0
2014-Oct-21 01:33N 51°55' E 004°25'0 0.0
2014-Oct-21 00:33N 51°55' E 004°25'0 0.0
2014-Oct-20 23:33N 51°55' E 004°25'0 0.1
2014-Oct-20 22:34N 51°54' E 004°25'6 5.9
2014-Oct-20 21:34N 51°55' E 004°15'8 8.5
2014-Oct-20 20:34N 51°59' E 004°04'9 9.1
2014-Oct-20 19:33N 51°59' E 003°49'9 8.5
2014-Oct-20 18:33N 51°57' E 003°36'50 9.9
2014-Oct-20 13:33N 51°35' E 002°23'1211.6
2014-Oct-20 12:34N 51°26' E 002°12'1211.8
2014-Oct-20 11:33N 51°15' E 002°04'1212.2
2014-Oct-20 10:33N 51°07' E 001°49'1212.5
2014-Oct-20 09:34N 50°58' E 001°36'1311.9
2014-Oct-20 08:28N 50°48' E 001°24'  
Track history (hours):
 
Tides and Currents Weather Stations Pressure Air Temp Water Temp Dewpoint Dewpoint Depression Visibility Wind Speed Wind Dir Waves Ship Positions

Fri Langesund

Last reported at 2014-Oct-29 23:07 UTC. Time now 2014-Nov-01 05:30 UTC.
Position N 36°33' W 008°44'.

Length 90 m; draft 5.9 m.

Type: Cargo ship. MMSI: 236111779.

Date/timePositionNaut miles runAvg speedWind from/ knotsBaromVisibWave heightAir tempDewpointWater temp
2014-Oct-29 23:07N 36°33' W 008°44'6 9.5
2014-Oct-29 22:27N 36°33' W 008°52'8 9.0
2014-Oct-29 21:30N 36°32' W 009°02'10 8.8
2014-Oct-29 20:25N 36°34' W 009°14'10 9.1
2014-Oct-29 19:19N 36°40' W 009°24'7 9.2
2014-Oct-29 18:33N 36°45' W 009°31'30 9.3
2014-Oct-29 15:20N 37°14' W 009°40'17 9.0
2014-Oct-29 13:29N 37°30' W 009°45'9 9.7
2014-Oct-29 12:32N 37°39' W 009°48'10 9.9
2014-Oct-29 11:33N 37°48' W 009°50'1010.0
2014-Oct-29 10:32N 37°58' W 009°53'10 9.9
2014-Oct-29 09:33N 38°08' W 009°56'1010.0
2014-Oct-29 08:30N 38°18' W 009°59'1010.1
2014-Oct-29 07:33N 38°27' W 010°02'  
2014-Oct-26 01:34N 49°42' W 003°45'2211.2
2014-Oct-25 23:33N 49°53' W 003°15'20 9.5
2014-Oct-25 21:27N 50°02' W 002°47'11310.2
2014-Oct-25 10:26N 50°33' E 000°03'9 8.2
2014-Oct-25 09:19N 50°35' E 000°17'6 8.2
2014-Oct-25 08:33N 50°37' E 000°26'9 9.2
2014-Oct-25 07:33N 50°41' E 000°39'1111.1
2014-Oct-25 06:33N 50°47' E 000°54'1211.8
2014-Oct-25 05:33N 50°54' E 001°09'1211.6
2014-Oct-25 04:33N 51°02' E 001°23'1010.2
2014-Oct-25 03:33N 51°08' E 001°35'9 8.7
2014-Oct-25 02:33N 51°14' E 001°46'8 8.2
2014-Oct-25 01:33N 51°21' E 001°54'7 7.3
2014-Oct-25 00:34N 51°24' E 002°04'9 8.9
2014-Oct-24 23:33N 51°21' E 002°17'9 9.2
2014-Oct-24 22:33N 51°23' E 002°32'10 9.7
2014-Oct-24 21:33N 51°22' E 002°47'1210.9
2014-Oct-24 20:28N 51°24' E 003°06'1011.3
2014-Oct-24 19:33N 51°25' E 003°22'1110.9
2014-Oct-24 18:34N 51°27' E 003°40'1110.8
2014-Oct-24 17:33N 51°22' E 003°56'8 7.7
2014-Oct-24 16:33N 51°22' E 004°08'6 6.1
2014-Oct-24 15:33N 51°21' E 004°17'0 0.0
2014-Oct-24 14:32N 51°21' E 004°17'1 0.7
2014-Oct-24 13:33N 51°21' E 004°18'0 0.3
2014-Oct-24 12:11N 51°22' E 004°17'0 0.0
2014-Oct-24 11:29N 51°22' E 004°17'0 0.0
2014-Oct-24 10:29N 51°22' E 004°17'0 0.0
2014-Oct-24 09:32N 51°22' E 004°17'0 0.0
2014-Oct-24 06:05N 51°22' E 004°17'0 0.0
2014-Oct-24 02:32N 51°22' E 004°17'0 0.0
2014-Oct-24 00:26N 51°22' E 004°17'0 0.0
2014-Oct-23 20:32N 51°22' E 004°17'0 0.0
2014-Oct-23 17:23N 51°22' E 004°17'0 0.0
2014-Oct-23 07:23N 51°22' E 004°17'0 0.0
2014-Oct-23 06:08N 51°22' E 004°17'0 0.0
2014-Oct-23 04:29N 51°22' E 004°17'0 0.0
2014-Oct-23 03:32N 51°22' E 004°17'0 0.0
2014-Oct-23 02:08N 51°22' E 004°17'0 0.0
2014-Oct-23 00:17N 51°22' E 004°17'0 0.4
2014-Oct-22 23:34N 51°21' E 004°18'1 0.7
2014-Oct-22 22:34N 51°21' E 004°17'1 0.8
2014-Oct-22 21:33N 51°21' E 004°16'7 7.3
2014-Oct-22 20:34N 51°22' E 004°04'5 5.2
2014-Oct-22 19:33N 51°22' E 003°56'8 8.3
2014-Oct-22 18:33N 51°23' E 003°43'8 7.5
2014-Oct-22 17:33N 51°27' E 003°33'9 9.4
2014-Oct-22 16:33N 51°35' E 003°24'9 9.2
2014-Oct-22 15:34N 51°42' E 003°16'6 6.1
2014-Oct-22 14:33N 51°48' E 003°17'9 8.4
2014-Oct-22 13:31N 51°57' E 003°21'12 5.9
2014-Oct-22 11:33N 52°03' E 003°37'7 6.7
2014-Oct-22 10:34N 52°03' E 003°48'7 6.5
2014-Oct-22 09:34N 52°01' E 003°58'7 6.5
2014-Oct-22 08:33N 51°58' E 004°07'1110.6
2014-Oct-22 07:33N 51°54' E 004°23'3 3.3
2014-Oct-22 06:32N 51°54' E 004°28'0 0.0
2014-Oct-22 05:31N 51°54' E 004°28'1 1.5
2014-Oct-22 04:33N 51°54' E 004°26'1 0.8
2014-Oct-22 03:33N 51°55' E 004°25'0 0.0
2014-Oct-22 02:33N 51°55' E 004°25'0 0.0
2014-Oct-22 01:33N 51°55' E 004°25'0 0.0
2014-Oct-22 00:33N 51°55' E 004°25'0 0.0
2014-Oct-21 23:33N 51°55' E 004°25'0 0.0
2014-Oct-21 22:33N 51°55' E 004°25'0 0.0
2014-Oct-21 21:33N 51°55' E 004°25'0 0.0
2014-Oct-21 20:33N 51°55' E 004°25'0 0.0
2014-Oct-21 19:33N 51°55' E 004°25'0 0.0
2014-Oct-21 18:33N 51°55' E 004°25'0 0.0
2014-Oct-21 17:33N 51°55' E 004°25'0 0.0
2014-Oct-21 16:33N 51°55' E 004°25'0 0.0
2014-Oct-21 15:30N 51°55' E 004°25'0 0.0
2014-Oct-21 14:33N 51°55' E 004°25'0 0.0
2014-Oct-21 13:33N 51°55' E 004°25'0 0.0
2014-Oct-21 12:33N 51°55' E 004°25'0 0.0
2014-Oct-21 11:33N 51°55' E 004°25'0 0.0
2014-Oct-21 10:33N 51°55' E 004°25'0 0.0
2014-Oct-21 09:33N 51°55' E 004°25'0 0.0
2014-Oct-21 08:33N 51°55' E 004°25'0 0.0
2014-Oct-21 07:33N 51°55' E 004°25'163162.8
2014-Oct-21 06:33N 51°55' E 000°01'163162.9
2014-Oct-21 05:33N 51°55' E 004°25'0 0.0
2014-Oct-21 04:33N 51°55' E 004°25'0 0.0
2014-Oct-21 03:33N 51°55' E 004°25'0 0.0
2014-Oct-21 02:33N 51°55' E 004°25'0 0.0
2014-Oct-21 01:33N 51°55' E 004°25'0 0.0
2014-Oct-21 00:33N 51°55' E 004°25'0 0.0
2014-Oct-20 23:33N 51°55' E 004°25'0 0.1
2014-Oct-20 22:34N 51°54' E 004°25'6 5.9
2014-Oct-20 21:34N 51°55' E 004°15'8 8.5
2014-Oct-20 20:34N 51°59' E 004°04'9 9.1
2014-Oct-20 19:33N 51°59' E 003°49'9 8.5
2014-Oct-20 18:33N 51°57' E 003°36'50 9.9
2014-Oct-20 13:33N 51°35' E 002°23'1211.6
2014-Oct-20 12:34N 51°26' E 002°12'1211.8
2014-Oct-20 11:33N 51°15' E 002°04'1212.2
2014-Oct-20 10:33N 51°07' E 001°49'1212.5
2014-Oct-20 09:34N 50°58' E 001°36'1311.9
2014-Oct-20 08:28N 50°48' E 001°24'  

Dump ship's entire track history